Tracking 19817 objects as of 18-Aug-2019
HD Live streaming from Space Station
objects crossing your sky now

COSMOS 2251 DEB

Track COSMOS 2251 DEB now!
10-day predictions


NORAD ID: 35474
Int'l Code: 1993-036ALU
Perigee: 707.1 km
Apogee: 718.1 km
Inclination: 74.0 °
Period: 98.9 minutes
Semi major axis: 7083 km
RCS: 0.0059 m2 (small)
Launch date: June 16, 1993
Source: Commonwealth of Independent States (former USSR) (CIS)
Launch site: PLESETSK MISSILE AND SPACE COMPLEX (PKMTR)

Note: This is SATELLITE DEBRIS
aabbcc
Your satellite tracking list
Your tracking list is empty




NASA's NSSDC Master Catalog

Two Line Element Set (TLE):
1 35474U 93036ALU 19228.90399373 +.00001002 +00000-0 +23324-3 0  9999
2 35474 074.0024 038.8450 0007771 111.7325 038.7401 14.56192607544649
Source of the keplerian elements: AFSPC